Meteo pe oră la Czymanowo

Astăzi, 23 Aprilie, Vineri

Timp Temperatura Precipitaţii Vânt Presiune Umiditate
00:00 +1°C° 0 mm 5 m/s 759 mmHg 77%
01:00 +1°C° 0 mm 4 m/s 760 mmHg 80%
02:00 +1°C° 0 mm 5 m/s 760 mmHg 79%
03:00 +1°C° 0 mm 5 m/s 759 mmHg 78%
04:00 +1°C° 0 mm 6 m/s 759 mmHg 77%
05:00 +2°C° 0 mm 6 m/s 760 mmHg 71%
06:00 +3°C° 0 mm 7 m/s 760 mmHg 66%
07:00 +3°C° 0 mm 7 m/s 761 mmHg 61%
08:00 +4°C° 0 mm 7 m/s 761 mmHg 54%
09:00 +4°C° 0 mm 8 m/s 761 mmHg 48%
10:00 +5°C° 0 mm 8 m/s 762 mmHg 41%
11:00 +5°C° 0 mm 8 m/s 762 mmHg 40%
12:00 +5°C° 0 mm 7 m/s 763 mmHg 38%
13:00 +6°C° 0 mm 7 m/s 763 mmHg 36%
14:00 +6°C° 0 mm 7 m/s 763 mmHg 36%
15:00 +6°C° 0 mm 7 m/s 763 mmHg 36%
16:00 +6°C° 0 mm 7 m/s 763 mmHg 35%
17:00 +5°C° 0 mm 6 m/s 763 mmHg 43%
18:00 +5°C° 0 mm 5 m/s 763 mmHg 52%
19:00 +4°C° 0 mm 3 m/s 764 mmHg 60%
20:00 +4°C° 0 mm 3 m/s 764 mmHg 62%
21:00 +4°C° 0 mm 2 m/s 764 mmHg 65%
22:00 +4°C° 0 mm 1 m/s 764 mmHg 68%
23:00 +3°C° 0 mm 2 m/s 764 mmHg 70%

Mâine, 24 Aprilie, Sâmbătă

Timp Temperatura Precipitaţii Vânt Presiune Umiditate
00:00 +2°C° 0 mm 2 m/s 764 mmHg 72%
01:00 +1°C° 0 mm 3 m/s 764 mmHg 74%
02:00 +1°C° 0 mm 3 m/s 764 mmHg 75%
03:00 0°C° 0 mm 3 m/s 764 mmHg 76%
04:00 -1°C° 0 mm 4 m/s 763 mmHg 77%
05:00 +1°C° 0 mm 4 m/s 764 mmHg 70%
06:00 +3°C° 0 mm 4 m/s 764 mmHg 62%
07:00 +4°C° 0 mm 4 m/s 764 mmHg 55%
08:00 +5°C° 0 mm 4 m/s 764 mmHg 50%
09:00 +6°C° 0 mm 5 m/s 764 mmHg 45%
10:00 +7°C° 0 mm 5 m/s 764 mmHg 39%
11:00 +7°C° 0 mm 5 m/s 764 mmHg 41%
12:00 +7°C° 0 mm 6 m/s 764 mmHg 42%
13:00 +7°C° 0 mm 6 m/s 764 mmHg 43%
14:00 +5°C° 0 mm 6 m/s 764 mmHg 41%
15:00 +6°C° 0 mm 5 m/s 764 mmHg 40%
16:00 +5°C° 0 mm 5 m/s 764 mmHg 38%
17:00 +4°C° 0 mm 4 m/s 764 mmHg 43%
18:00 +3°C° 0 mm 4 m/s 764 mmHg 48%
19:00 +1°C° 0 mm 4 m/s 764 mmHg 53%
20:00 +2°C° 0 mm 3 m/s 764 mmHg 57%
21:00 +1°C° 0 mm 3 m/s 764 mmHg 61%
22:00 +1°C° 0 mm 3 m/s 764 mmHg 65%
23:00 +1°C° 0 mm 3 m/s 764 mmHg 65%

Poimâine, 25 Aprilie, Duminică

Timp Temperatura Precipitaţii Vânt Presiune Umiditate
00:00 0°C° 0 mm 3 m/s 764 mmHg 66%
01:00 0°C° 0 mm 3 m/s 764 mmHg 66%
02:00 0°C° 0 mm 3 m/s 764 mmHg 65%
03:00 0°C° 0 mm 3 m/s 764 mmHg 65%
04:00 -1°C° 0 mm 4 m/s 764 mmHg 64%
05:00 0°C° 0.1 mm 4 m/s 764 mmHg 62%
06:00 +3°C° 0.1 mm 4 m/s 764 mmHg 59%
07:00 +3°C° 0.1 mm 5 m/s 764 mmHg 57%
08:00 +3°C° 0.1 mm 5 m/s 764 mmHg 53%
09:00 +5°C° 0.1 mm 5 m/s 764 mmHg 49%
10:00 +5°C° 0.1 mm 5 m/s 764 mmHg 46%
11:00 +4°C° 0.1 mm 6 m/s 764 mmHg 48%
12:00 +4°C° 0.1 mm 6 m/s 764 mmHg 50%
13:00 +4°C° 0.1 mm 6 m/s 764 mmHg 52%
14:00 +4°C° 0.1 mm 6 m/s 764 mmHg 51%
15:00 +4°C° 0.1 mm 6 m/s 764 mmHg 50%
16:00 +5°C° 0.1 mm 5 m/s 764 mmHg 49%
17:00 +4°C° 0 mm 4 m/s 764 mmHg 52%
18:00 +3°C° 0 mm 4 m/s 764 mmHg 54%
19:00 +2°C° 0 mm 3 m/s 764 mmHg 57%
20:00 +1°C° 0 mm 3 m/s 764 mmHg 60%
21:00 +1°C° 0 mm 3 m/s 764 mmHg 62%
22:00 0°C° 0 mm 3 m/s 763 mmHg 64%
23:00 +1°C° 0 mm 2 m/s 763 mmHg 67%

26 Aprilie, Luni

Timp Temperatura Precipitaţii Vânt Presiune Umiditate
00:00 +1°C° 0 mm 2 m/s 763 mmHg 70%
01:00 -1°C° 0 mm 2 m/s 763 mmHg 73%
02:00 -1°C° 0 mm 2 m/s 763 mmHg 72%
03:00 -1°C° 0 mm 3 m/s 762 mmHg 71%
04:00 -1°C° 0 mm 3 m/s 762 mmHg 70%
05:00 +1°C° 0 mm 3 m/s 762 mmHg 64%
06:00 +2°C° 0 mm 3 m/s 762 mmHg 58%
07:00 +4°C° 0 mm 4 m/s 762 mmHg 52%
08:00 +5°C° 0 mm 4 m/s 762 mmHg 48%
09:00 +6°C° 0 mm 4 m/s 762 mmHg 44%
10:00 +6°C° 0 mm 5 m/s 762 mmHg 40%
11:00 +6°C° 0 mm 5 m/s 762 mmHg 41%
12:00 +7°C° 0 mm 5 m/s 761 mmHg 42%
13:00 +7°C° 0 mm 6 m/s 761 mmHg 43%
14:00 +5°C° 0 mm 6 m/s 761 mmHg 43%
15:00 +6°C° 0 mm 5 m/s 761 mmHg 43%
16:00 +6°C° 0 mm 5 m/s 761 mmHg 44%
17:00 +5°C° 0 mm 4 m/s 761 mmHg 49%
18:00 +4°C° 0 mm 4 m/s 761 mmHg 54%
19:00 +3°C° 0 mm 4 m/s 760 mmHg 60%
20:00 +1°C° 0 mm 4 m/s 760 mmHg 68%
21:00 +1°C° 0 mm 4 m/s 760 mmHg 75%
22:00 0°C° 0 mm 4 m/s 760 mmHg 83%
23:00 +1°C° 0 mm 3 m/s 760 mmHg 86%

27 Aprilie, Marţi

Timp Temperatura Precipitaţii Vânt Presiune Umiditate
00:00 +1°C° 0 mm 3 m/s 760 mmHg 88%
01:00 0°C° 0 mm 3 m/s 760 mmHg 91%
02:00 +1°C° 0 mm 2 m/s 759 mmHg 91%
03:00 +1°C° 0 mm 2 m/s 759 mmHg 90%
04:00 +1°C° 0 mm 2 m/s 759 mmHg 90%
05:00 +2°C° 0 mm 2 m/s 759 mmHg 83%
06:00 +4°C° 0 mm 2 m/s 759 mmHg 76%
07:00 +6°C° 0 mm 1 m/s 759 mmHg 68%
08:00 +6°C° 0 mm 2 m/s 759 mmHg 63%
09:00 +8°C° 0 mm 2 m/s 759 mmHg 58%
10:00 +9°C° 0 mm 2 m/s 759 mmHg 53%
11:00 +9°C° 0 mm 2 m/s 759 mmHg 54%
12:00 +9°C° 0 mm 3 m/s 759 mmHg 55%
13:00 +9°C° 0 mm 3 m/s 759 mmHg 56%
14:00 +7°C° 0 mm 4 m/s 759 mmHg 58%
15:00 +7°C° 0 mm 4 m/s 758 mmHg 60%
16:00 +7°C° 0 mm 4 m/s 758 mmHg 63%
17:00 +6°C° 0 mm 4 m/s 758 mmHg 68%
18:00 +5°C° 0 mm 4 m/s 758 mmHg 73%
19:00 +4°C° 0 mm 4 m/s 758 mmHg 79%
20:00 +4°C° 0 mm 4 m/s 758 mmHg 79%
21:00 +3°C° 0 mm 4 m/s 758 mmHg 80%
22:00 +3°C° 0 mm 4 m/s 758 mmHg 80%
23:00 +3°C° 0 mm 4 m/s 757 mmHg 81%

28 Aprilie, Miercuri

Timp Temperatura Precipitaţii Vânt Presiune Umiditate
00:00 +2°C° 0 mm 5 m/s 757 mmHg 81%
01:00 +2°C° 0 mm 5 m/s 757 mmHg 82%
02:00 +2°C° 0 mm 5 m/s 756 mmHg 83%
03:00 +2°C° 0 mm 5 m/s 756 mmHg 83%
04:00 +2°C° 0 mm 5 m/s 756 mmHg 84%
05:00 +2°C° 0 mm 5 m/s 756 mmHg 82%
06:00 +3°C° 0 mm 6 m/s 756 mmHg 80%
07:00 +3°C° 0 mm 6 m/s 756 mmHg 78%
08:00 +4°C° 0 mm 6 m/s 755 mmHg 74%
09:00 +5°C° 0 mm 6 m/s 755 mmHg 71%
10:00 +5°C° 0 mm 6 m/s 755 mmHg 67%
11:00 +5°C° 0 mm 6 m/s 755 mmHg 66%
12:00 +7°C° 0 mm 6 m/s 755 mmHg 65%
13:00 +7°C° 0 mm 6 m/s 755 mmHg 64%
14:00 +5°C° 0 mm 6 m/s 755 mmHg 65%
15:00 +5°C° 0 mm 6 m/s 755 mmHg 66%
16:00 +5°C° 0 mm 6 m/s 754 mmHg 67%
17:00 +4°C° 0 mm 6 m/s 754 mmHg 71%
18:00 +3°C° 0 mm 5 m/s 754 mmHg 74%
19:00 +2°C° 0 mm 5 m/s 754 mmHg 77%
20:00 +3°C° 0 mm 4 m/s 755 mmHg 79%
21:00 +1°C° 0 mm 4 m/s 755 mmHg 80%
22:00 +1°C° 0 mm 3 m/s 755 mmHg 81%
23:00 +1°C° 0 mm 3 m/s 755 mmHg 82%
Arată mai mult

Formular de consimțământ

Meteoprog și furnizorii noștri de servicii pot stoca și accesa date personale, precum cookies, identificatori de dispozitiv sau alte tehnologii similare pe dispozitivul dumneavoastră și procesa astfel de date pentru a personaliza conținutul și reclamele, dar și pentru a oferi caracteristici de social media și pentru a analiza traficul.

  • Stocarea și/sau accesarea informațiilor pe dispozitivul dumneavoastră

    Cookies, identificatori de dispozitiv sau alte informații pot fi stocate sau accesate pe dispozitiv în scopurile indicate mai sus.

  • Reclame și conținut personalizat, evaluarea reclamelor și a conținutului, informații despre audiențe și dezvoltarea produselor

    Reclamele și conținutul pot fi personalizate pe baza unui profil. Pot fi adăugate date suplimentare pentru a personaliza mai bine reclamele și conținutul. Performanța reclamelor și conținutului poate fi măsurată. Pot fi obținute informații despre utilizatorii care au văzut reclamele și conținutul. Aceste date pot fi utilizate pentru a dezvolta sau îmbunătăți experiența utilizatorilor, sistemele și software-ul.

Dând clic pe ‘Sunt de acord’, permiteți utilizarea cookie-urilor menționate, a identificatorilor de dispozitiv, balizelor web sau altor tehnologii similare. Setările pot fi modificate din browser-ul dispozitivului dumneavoastră.

În anumite scopuri, interesele legitime pot prima asupra consimțământului. Puteți citi mai multe informații în acest sens în Politica privind Confidențialitatea Datelor și Cookie.